CW4535 Weather Reports


time (UTC)temp
C
wind
direction
speed
KPH
gust
KPH
rain 1hr
cm
rain 24hr
cm
rain mn
cm
humidity
%
barometer
mb
20260906193003 40 124 0.0 3.2 0.00 0.00 0.00 37 1011.3
20260906192003 40 163 1.6 14.5 0.00 0.00 0.00 37 1011.5
20260906191003 40 120 1.6 9.7 0.00 0.00 0.00 39 1011.6
20260906190003 39 165 1.6 6.4 0.00 0.00 0.00 39 1011.7
20260906185003 39 114 1.6 8.0 0.00 0.00 0.00 40 1011.7
20260906184003 38 354 0.0 6.4 0.00 0.00 0.00 38 1011.8
20260906183003 39 348 1.6 8.0 0.00 0.00 0.00 37 1012.0
20260906182219 39 16 3.2 11.3 0.00 0.00 0.00 37 1012.2
20260906181003 39 53 1.6 6.4 0.00 0.00 0.00 37 1012.5
20260906180003 38 73 1.6 6.4 0.00 0.00 0.00 39 1012.7
20260906175217 39 70 1.6 4.8 0.00 0.00 0.00 40 1012.9
20260906174003 38 12 1.6 4.8 0.00 0.00 0.00 42 1013.0
20260906173003 38 350 1.6 6.4 0.00 0.00 0.00 41 1013.2
20260906172220 37 297 1.6 6.4 0.00 0.00 0.00 41 1013.3
20260906171004 37 75 1.6 6.4 0.00 0.00 0.00 42 1013.5
20260906170217 37 82 0.0 6.4 0.00 0.00 0.00 43 1013.6
20260906165003 37 261 0.0 4.8 0.00 0.00 0.00 48 1013.8
20260906164004 37 255 0.0 4.8 0.00 0.00 0.00 43 1013.9
20260906163003 36 48 1.6 6.4 0.00 0.00 0.00 45 1013.9
20260906162220 36 55 1.6 6.4 0.00 0.00 0.00 46 1013.9
20260906161216 36 284 0.0 3.2 0.00 0.00 0.00 48 1013.9
20260906160004 35 282 0.0 3.2 0.00 0.00 0.00 49 1014.0
20260906155003 35 282 0.0 3.2 0.00 0.00 0.00 49 1014.0
20260906154219 35 279 1.6 4.8 0.00 0.00 0.00 50 1013.9
20260906153003 35 255 0.0 3.2 0.00 0.00 0.00 51 1013.9
20260906152003 34 259 0.0 3.2 0.00 0.00 0.00 52 1013.8
20260906151003 33 274 0.0 1.6 0.00 0.00 0.00 55 1013.8
20260906150218 33 267 1.6 6.4 0.00 0.00 0.00 55 1013.7
20260906145003 33 232 1.6 4.8 0.00 0.00 0.00 57 1013.8
20260906144003 32 81 0.0 1.6 0.00 0.00 0.00 61 1013.8
20260906143003 31 81 0.0 1.6 0.00 0.00 0.00 62 1013.7
20260906142003 30 79 0.0 4.8 0.00 0.00 0.00 67 1013.8
20260906141003 31 72 0.0 1.6 0.00 0.00 0.00 63 1013.7
20260906140218 30 72 0.0 1.6 0.00 0.00 0.00 67 1013.7
20260906135003 29 72 0.0 1.6 0.00 0.00 0.00 69 1013.5
20260906134003 28 72 0.0 1.6 0.00 0.00 0.00 71 1013.5
20260906133221 28 72 0.0 1.6 0.00 0.00 0.00 72 1013.5
20260906131003 27 0 0.0 0.0 0.00 0.00 0.00 78 1013.5
20260906130003 26 0 0.0 0.0 0.00 0.00 0.00 80 1013.5
20260906125003 25 0 0.0 0.0 0.00 0.00 0.00 83 1013.4
20260906124221 25 0 0.0 0.0 0.00 0.00 0.00 84 1013.3
20260906123003 25 0 0.0 0.0 0.00 0.00 0.00 84 1013.1
20260906122003 25 0 0.0 0.0 0.00 0.00 0.00 85 1013.0
20260906121003 25 0 0.0 0.0 0.00 0.00 0.00 84 1013.0
20260906120220 25 0 0.0 0.0 0.00 0.00 0.00 85 1012.9
20260906115003 25 0 0.0 0.0 0.00 0.00 0.00 84 1012.7
20260906114003 25 0 0.0 0.0 0.00 0.00 0.00 84 1012.6
20260906113003 25 0 0.0 0.0 0.00 0.00 0.00 84 1012.6
20260906112003 25 0 0.0 0.0 0.00 0.00 0.00 83 1012.5
20260906111220 25 0 0.0 0.0 0.00 0.00 0.00 82 1012.5
20260906110004 25 0 0.0 0.0 0.00 0.00 0.00 82 1012.3
20260906105003 25 0 0.0 0.0 0.00 0.00 0.00 83 1012.2
20260906104003 25 0 0.0 0.0 0.00 0.00 0.00 82 1012.2
20260906103003 25 0 0.0 0.0 0.00 0.00 0.00 82 1012.2
20260906102003 25 0 0.0 0.0 0.00 0.00 0.00 81 1012.3
20260906101220 25 0 0.0 0.0 0.00 0.00 0.00 81 1012.3
20260906100003 25 0 0.0 0.0 0.00 0.00 0.00 80 1012.3
20260906095003 26 0 0.0 0.0 0.00 0.00 0.00 80 1012.3
20260906094003 26 0 0.0 0.0 0.00 0.00 0.00 80 1012.2
20260906093003 25 0 0.0 0.0 0.00 0.00 0.00 80 1012.1
20260906092003 25 0 0.0 0.0 0.00 0.00 0.00 80 1012.0
20260906091004 25 0 0.0 0.0 0.00 0.00 0.00 80 1012.0
20260906090003 26 0 0.0 0.0 0.00 0.00 0.00 80 1012.0
20260906085003 26 0 0.0 0.0 0.00 0.00 0.00 79 1011.8
20260906084219 26 0 0.0 0.0 0.00 0.00 0.00 79 1011.8
20260906083003 26 0 0.0 0.0 0.00 0.00 0.00 79 1011.7
20260906082003 26 0 0.0 0.0 0.00 0.00 0.00 79 1011.5
20260906081003 26 0 0.0 0.0 0.00 0.00 0.00 79 1011.5
20260906080004 26 0 0.0 0.0 0.00 0.00 0.00 78 1011.5
20260906075003 26 0 0.0 0.0 0.00 0.00 0.00 78 1011.5
20260906074003 26 0 0.0 0.0 0.00 0.00 0.00 78 1011.5
20260906073003 26 0 0.0 0.0 0.00 0.00 0.00 77 1011.5
20260906072003 26 0 0.0 0.0 0.00 0.00 0.00 76 1011.6
20260906071003 26 0 0.0 0.0 0.00 0.00 0.00 76 1011.7
20260906070003 26 0 0.0 0.0 0.00 0.00 0.00 75 1011.7
20260906065003 26 0 0.0 0.0 0.00 0.00 0.00 75 1011.7
20260906064003 27 0 0.0 0.0 0.00 0.00 0.00 75 1011.6
20260906063003 27 0 0.0 0.0 0.00 0.00 0.00 74 1011.8
20260906062003 27 0 0.0 0.0 0.00 0.00 0.00 74 1011.8
20260906061003 27 0 0.0 0.0 0.00 0.00 0.00 72 1011.8
20260906060003 27 0 0.0 0.0 0.00 0.00 0.00 73 1011.8
20260906055003 27 0 0.0 0.0 0.00 0.00 0.00 71 1011.7
20260906054003 27 0 0.0 0.0 0.00 0.00 0.00 70 1011.8
20260906053003 28 0 0.0 0.0 0.00 0.00 0.00 70 1011.7
20260906052217 27 72 0.0 1.6 0.00 0.00 0.00 70 1011.6
20260906051003 27 0 0.0 0.0 0.00 0.00 0.00 69 1011.4
20260906050005 28 0 0.0 0.0 0.00 0.00 0.00 69 1011.3
20260906045220 28 0 0.0 0.0 0.00 0.00 0.00 68 1011.4
20260906044003 28 0 0.0 0.0 0.00 0.00 0.00 68 1011.5
20260906043003 28 0 0.0 0.0 0.00 0.00 0.00 68 1011.5
20260906042003 28 0 0.0 0.0 0.00 0.00 0.00 67 1011.4
20260906041003 28 0 0.0 0.0 0.00 0.00 0.00 66 1011.6
20260906040003 28 0 0.0 0.0 0.00 0.00 0.00 65 1011.6
20260906035003 28 0 0.0 0.0 0.00 0.00 0.00 65 1011.6
20260906034004 28 0 0.0 0.0 0.00 0.00 0.00 64 1011.4
20260906033218 29 0 0.0 0.0 0.00 0.00 0.00 64 1011.4
20260906032003 29 0 0.0 0.0 0.00 0.00 0.00 63 1011.2
20260906031003 29 0 0.0 0.0 0.00 0.00 0.00 63 1011.3
20260906030004 29 0 0.0 0.0 0.00 0.00 0.00 61 1011.3
20260906025003 30 0 0.0 0.0 0.00 0.00 0.00 61 1011.3
20260906024003 30 0 0.0 0.0 0.00 0.00 0.00 60 1011.1
20260906023218 30 0 0.0 0.0 0.00 0.00 0.00 60 1011.0
20260906022003 30 0 0.0 0.0 0.00 0.00 0.00 59 1010.7
20260906021220 30 0 0.0 0.0 0.00 0.00 0.00 59 1010.6
20260906020003 30 0 0.0 0.0 0.00 0.00 0.00 58 1010.6
20260906015003 30 72 0.0 1.6 0.00 0.00 0.00 57 1010.5
20260906014218 31 0 0.0 0.0 0.00 0.00 0.00 55 1010.4
20260906013003 31 0 0.0 0.0 0.00 0.00 0.00 54 1010.3
20260906012003 31 0 0.0 0.0 0.00 0.00 0.00 52 1010.3
20260906011221 32 0 0.0 0.0 0.00 0.00 0.00 51 1010.2
20260906010004 32 0 0.0 0.0 0.00 0.00 0.00 49 1010.1
20260906005003 33 0 0.0 0.0 0.00 0.00 0.00 47 1010.1
20260906004003 33 0 0.0 0.0 0.00 0.00 0.00 46 1010.0
20260906003219 35 73 0.0 4.8 0.00 0.00 0.00 45 1010.1
20260906002003 35 74 0.0 1.6 0.00 0.00 0.00 44 1010.0
20260906001003 36 69 1.6 9.7 0.00 0.00 0.00 43 1010.0
20260906000004 36 79 1.6 4.8 0.00 0.00 0.00 40 1009.9
20260905235003 36 71 1.6 6.4 0.00 0.00 0.00 40 1009.8
20260905234003 37 56 1.6 6.4 0.00 0.00 0.00 40 1009.9
20260905233003 37 100 0.0 8.0 0.00 0.00 0.00 41 1009.8
20260905232003 38 72 0.0 4.8 0.00 0.00 0.00 38 1009.8
20260905231217 38 89 1.6 4.8 0.00 0.00 0.00 38 1009.7
20260905230003 38 150 0.0 4.8 0.00 0.00 0.00 37 1009.6
20260905225003 38 172 0.0 4.8 0.00 0.00 0.00 39 1009.8
20260905224003 38 124 1.6 8.0 0.00 0.00 0.00 38 1009.7
20260905223003 38 117 1.6 4.8 0.00 0.00 0.00 39 1009.8
20260905222217 38 76 0.0 4.8 0.00 0.00 0.00 37 1009.8
20260905221003 37 100 1.6 4.8 0.00 0.00 0.00 39 1009.9
20260905220004 38 126 1.6 4.8 0.00 0.00 0.00 40 1010.0
20260905215003 38 101 1.6 8.0 0.00 0.00 0.00 39 1010.2
20260905214003 38 157 1.6 8.0 0.00 0.00 0.00 38 1010.2
20260905213003 38 110 1.6 4.8 0.00 0.00 0.00 38 1010.4
20260905212217 38 165 1.6 6.4 0.00 0.00 0.00 38 1010.5
20260905211003 37 124 1.6 4.8 0.00 0.00 0.00 39 1010.6
20260905210003 38 132 1.6 11.3 0.00 0.00 0.00 40 1010.8
20260905205003 38 142 1.6 6.4 0.00 0.00 0.00 38 1010.8
20260905204003 38 142 1.6 8.0 0.00 0.00 0.00 40 1011.1
20260905203003 38 137 1.6 9.7 0.00 0.00 0.00 41 1011.3
20260905202003 37 113 1.6 8.0 0.00 0.00 0.00 43 1011.5
20260905201219 36 101 1.6 9.7 0.00 0.00 0.00 43 1011.7
20260905200004 38 108 1.6 8.0 0.00 0.00 0.00 40 1011.8
20260905195221 37 96 1.6 9.7 0.00 0.00 0.00 41 1011.9
20260905194003 37 91 1.6 8.0 0.00 0.00 0.00 43 1012.1